Wetterdaten: Sonntag, 06.09.2015
Datum Zeit Auen-Temp. Temp gefhlt Luftfeuchte Luftdruck Regen Wind Richtung Richtung Taupunkt Windben
06.09.2015 00:00 8,6 C 8,2 C 84 % 1012,7 hPa 0,0 mm 2,8 km/h (1 Bft) W-SW 247 6,1 C 0,0 km/h (0 Bft)
06.09.2015 00:05 8,6 C 8,3 C 84 % 1012,7 hPa 0,0 mm 2,1 km/h (1 Bft) SW 225 6,1 C 0,0 km/h (0 Bft)
06.09.2015 00:10 8,6 C 8,3 C 84 % 1012,7 hPa 0,0 mm 0,8 km/h (0 Bft) W-SW 247 6,1 C 0,0 km/h (0 Bft)
06.09.2015 00:15 8,5 C 8,2 C 84 % 1012,7 hPa 0,0 mm 1,0 km/h (0 Bft) W-SW 247 6,0 C 0,0 km/h (0 Bft)
06.09.2015 00:20 8,4 C 8,2 C 84 % 1012,7 hPa 0,0 mm 1,8 km/h (1 Bft) SW 225 5,9 C 4,7 km/h (1 Bft)
06.09.2015 00:25 8,4 C 8,2 C 83 % 1012,7 hPa 0,0 mm 2,3 km/h (1 Bft) W-SW 247 5,7 C 0,0 km/h (0 Bft)
06.09.2015 00:30 8,3 C 8,1 C 83 % 1012,7 hPa 0,0 mm 1,8 km/h (1 Bft) S 180 5,6 C 5,2 km/h (1 Bft)
06.09.2015 00:35 8,2 C 8,1 C 83 % 1012,8 hPa 0,0 mm 1,6 km/h (1 Bft) W-SW 247 5,5 C 0,0 km/h (0 Bft)
06.09.2015 00:40 8,2 C 8,1 C 83 % 1012,8 hPa 0,0 mm 1,3 km/h (1 Bft) W-SW 247 5,5 C 8,3 km/h (2 Bft)
06.09.2015 00:45 8,2 C 8,1 C 83 % 1012,8 hPa 0,0 mm 1,8 km/h (1 Bft) SW 225 5,5 C 6,5 km/h (2 Bft)
06.09.2015 00:50 8,3 C 8,2 C 83 % 1012,8 hPa 0,0 mm 3,6 km/h (1 Bft) S 180 5,6 C 10,9 km/h (2 Bft)
06.09.2015 00:55 8,4 C 8,3 C 83 % 1012,9 hPa 0,0 mm 3,9 km/h (1 Bft) W-SW 247 5,7 C 2,6 km/h (1 Bft)
06.09.2015 00:57 8,4 C 8,3 C 83 % 1012,9 hPa 0,0 mm 3,6 km/h (1 Bft) NW 315 5,7 C 2,6 km/h (1 Bft)
06.09.2015 01:00 8,4 C 8,3 C 83 % 1012,9 hPa 0,0 mm 3,6 km/h (1 Bft) NW 315 5,7 C 2,6 km/h (1 Bft)
06.09.2015 01:05 8,4 C 8,3 C 83 % 1012,9 hPa 0,0 mm 2,3 km/h (1 Bft) W-SW 247 5,7 C 4,1 km/h (1 Bft)
06.09.2015 01:10 8,4 C 8,3 C 83 % 1012,9 hPa 0,0 mm 1,8 km/h (1 Bft) W-SW 247 5,7 C 0,0 km/h (0 Bft)
06.09.2015 01:15 8,4 C 8,3 C 83 % 1012,7 hPa 0,0 mm 1,8 km/h (1 Bft) S 180 5,7 C 4,9 km/h (1 Bft)
06.09.2015 01:20 8,4 C 8,4 C 83 % 1012,7 hPa 0,0 mm 1,0 km/h (0 Bft) SW 225 5,7 C 6,0 km/h (2 Bft)
06.09.2015 01:25 8,4 C 8,3 C 83 % 1012,7 hPa 0,0 mm 1,0 km/h (0 Bft) W-SW 247 5,7 C 3,4 km/h (1 Bft)
06.09.2015 01:30 8,3 C 8,3 C 83 % 1012,7 hPa 0,0 mm 1,3 km/h (1 Bft) SW 225 5,6 C 0,0 km/h (0 Bft)
06.09.2015 01:35 8,3 C 8,3 C 83 % 1012,6 hPa 0,0 mm 1,3 km/h (1 Bft) SW 225 5,6 C 4,1 km/h (1 Bft)
06.09.2015 01:40 8,4 C 8,3 C 83 % 1012,6 hPa 0,0 mm 1,0 km/h (0 Bft) W-SW 247 5,7 C 4,1 km/h (1 Bft)
06.09.2015 01:45 8,3 C 8,3 C 83 % 1012,6 hPa 0,0 mm 1,0 km/h (0 Bft) SW 225 5,6 C 5,7 km/h (1 Bft)
06.09.2015 01:50 8,3 C 8,2 C 83 % 1012,6 hPa 0,0 mm 2,3 km/h (1 Bft) S 180 5,6 C 9,8 km/h (2 Bft)
06.09.2015 01:55 8,3 C 8,2 C 82 % 1012,4 hPa 0,0 mm 2,6 km/h (1 Bft) SO 135 5,4 C 3,6 km/h (1 Bft)
06.09.2015 02:00 8,2 C 8,1 C 82 % 1012,4 hPa 0,0 mm 2,1 km/h (1 Bft) W-SW 247 5,3 C 3,9 km/h (1 Bft)
06.09.2015 02:05 8,2 C 8,1 C 82 % 1012,4 hPa 0,0 mm 1,6 km/h (1 Bft) W 270 5,3 C 0,0 km/h (0 Bft)
06.09.2015 02:10 8,1 C 8,1 C 82 % 1012,4 hPa 0,0 mm 1,0 km/h (0 Bft) W-SW 247 5,2 C 0,0 km/h (0 Bft)
06.09.2015 02:15 8,0 C 8,0 C 82 % 1012,2 hPa 0,0 mm 0,3 km/h (0 Bft) W 270 5,1 C 0,0 km/h (0 Bft)
06.09.2015 02:20 7,9 C 7,9 C 83 % 1012,2 hPa 0,0 mm 0,0 km/h (0 Bft) W 270 5,2 C 0,0 km/h (0 Bft)
06.09.2015 02:25 7,9 C 7,8 C 83 % 1012,2 hPa 0,0 mm 0,3 km/h (0 Bft) S 180 5,2 C 0,0 km/h (0 Bft)
06.09.2015 02:30 8,0 C 7,9 C 83 % 1012,2 hPa 0,0 mm 0,8 km/h (0 Bft) SW 225 5,3 C 6,0 km/h (2 Bft)
06.09.2015 02:35 8,0 C 7,9 C 83 % 1012,1 hPa 0,0 mm 1,0 km/h (0 Bft) SW 225 5,3 C 3,6 km/h (1 Bft)
06.09.2015 02:40 8,0 C 7,9 C 83 % 1012,1 hPa 0,0 mm 2,3 km/h (1 Bft) SW 225 5,3 C 5,4 km/h (1 Bft)
06.09.2015 02:45 8,1 C 8,0 C 83 % 1012,1 hPa 0,0 mm 2,8 km/h (1 Bft) S-SW 202 5,4 C 5,7 km/h (1 Bft)
06.09.2015 02:50 8,2 C 8,1 C 83 % 1012,1 hPa 0,0 mm 3,1 km/h (1 Bft) S-SW 202 5,5 C 6,5 km/h (2 Bft)
06.09.2015 02:55 8,3 C 8,2 C 83 % 1012,2 hPa 0,0 mm 2,6 km/h (1 Bft) S-SW 202 5,6 C 3,1 km/h (1 Bft)
06.09.2015 03:00 8,4 C 8,3 C 83 % 1012,2 hPa 0,0 mm 2,6 km/h (1 Bft) W-SW 247 5,7 C 3,9 km/h (1 Bft)
06.09.2015 03:05 8,3 C 8,2 C 83 % 1012,2 hPa 0,0 mm 1,8 km/h (1 Bft) S 180 5,6 C 0,0 km/h (0 Bft)
06.09.2015 03:10 8,3 C 8,2 C 83 % 1012,2 hPa 0,0 mm 1,8 km/h (1 Bft) N-NO 22 5,6 C 3,4 km/h (1 Bft)
06.09.2015 03:15 8,3 C 8,2 C 83 % 1012,4 hPa 0,0 mm 2,1 km/h (1 Bft) S 180 5,6 C 0,0 km/h (0 Bft)
06.09.2015 03:20 8,4 C 8,3 C 83 % 1012,4 hPa 0,0 mm 3,4 km/h (1 Bft) W-NW 292 5,7 C 8,3 km/h (2 Bft)
06.09.2015 03:25 8,5 C 8,4 C 83 % 1012,4 hPa 0,0 mm 4,9 km/h (1 Bft) W 270 5,8 C 4,4 km/h (1 Bft)
06.09.2015 03:30 8,5 C 8,5 C 82 % 1012,4 hPa 0,0 mm 4,4 km/h (1 Bft) S-SW 202 5,6 C 8,8 km/h (2 Bft)
06.09.2015 03:35 8,5 C 8,5 C 82 % 1012,4 hPa 0,0 mm 3,4 km/h (1 Bft) W-SW 247 5,6 C 2,8 km/h (1 Bft)
06.09.2015 03:40 8,5 C 8,5 C 82 % 1012,4 hPa 0,0 mm 3,6 km/h (1 Bft) W-SW 247 5,6 C 7,5 km/h (2 Bft)
06.09.2015 03:45 8,5 C 8,5 C 82 % 1012,4 hPa 0,0 mm 3,1 km/h (1 Bft) NO 45 5,6 C 0,0 km/h (0 Bft)
06.09.2015 03:50 8,5 C 8,5 C 82 % 1012,4 hPa 0,0 mm 2,6 km/h (1 Bft) SW 225 5,6 C 2,6 km/h (1 Bft)
06.09.2015 03:55 8,6 C 8,5 C 82 % 1012,2 hPa 0,0 mm 2,6 km/h (1 Bft) W-NW 292 5,7 C 2,6 km/h (1 Bft)
06.09.2015 04:00 8,6 C 8,6 C 82 % 1012,2 hPa 0,0 mm 2,1 km/h (1 Bft) W 270 5,7 C 0,0 km/h (0 Bft)
06.09.2015 04:05 8,5 C 8,4 C 82 % 1012,2 hPa 0,0 mm 1,8 km/h (1 Bft) W 270 5,6 C 4,1 km/h (1 Bft)
06.09.2015 04:10 8,4 C 8,3 C 82 % 1012,2 hPa 0,0 mm 2,6 km/h (1 Bft) NO 45 5,5 C 13,7 km/h (3 Bft)
06.09.2015 04:15 8,4 C 8,2 C 83 % 1012,5 hPa 0,0 mm 3,6 km/h (1 Bft) SW 225 5,7 C 8,0 km/h (2 Bft)
06.09.2015 04:20 8,3 C 8,1 C 83 % 1012,5 hPa 0,0 mm 4,1 km/h (1 Bft) SW 225 5,6 C 5,7 km/h (1 Bft)
06.09.2015 04:25 8,2 C 8,0 C 84 % 1012,5 hPa 0,0 mm 5,2 km/h (1 Bft) W 270 5,7 C 10,6 km/h (2 Bft)
06.09.2015 04:30 8,1 C 7,9 C 84 % 1012,5 hPa 0,0 mm 5,7 km/h (1 Bft) W-SW 247 5,6 C 18,1 km/h (3 Bft)
06.09.2015 04:35 8,0 C 7,8 C 84 % 1012,7 hPa 0,7 mm 3,6 km/h (1 Bft) N-NO 22 5,5 C 0,0 km/h (0 Bft)
06.09.2015 04:40 7,9 C 7,7 C 85 % 1012,7 hPa 0,0 mm 1,6 km/h (1 Bft) W 270 5,5 C 0,0 km/h (0 Bft)
06.09.2015 04:45 7,9 C 7,7 C 85 % 1012,7 hPa 0,0 mm 2,8 km/h (1 Bft) W-SW 247 5,5 C 8,0 km/h (2 Bft)
06.09.2015 04:50 7,9 C 7,7 C 86 % 1012,7 hPa 0,0 mm 4,1 km/h (1 Bft) O-NO 67 5,7 C 4,4 km/h (1 Bft)
06.09.2015 04:55 7,8 C 7,7 C 86 % 1012,6 hPa 0,0 mm 5,2 km/h (1 Bft) SW 225 5,6 C 4,7 km/h (1 Bft)
06.09.2015 05:00 7,8 C 7,6 C 86 % 1012,6 hPa 0,0 mm 4,4 km/h (1 Bft) N-NW 337 5,6 C 0,0 km/h (0 Bft)
06.09.2015 05:05 7,8 C 7,6 C 86 % 1012,6 hPa 0,0 mm 3,4 km/h (1 Bft) NW 315 5,6 C 0,0 km/h (0 Bft)
06.09.2015 05:10 7,8 C 7,6 C 86 % 1012,6 hPa 0,0 mm 3,1 km/h (1 Bft) SW 225 5,6 C 8,8 km/h (2 Bft)
06.09.2015 05:15 7,8 C 7,6 C 86 % 1012,4 hPa 0,0 mm 3,9 km/h (1 Bft) SW 225 5,6 C 6,5 km/h (2 Bft)
06.09.2015 05:20 7,8 C 7,6 C 86 % 1012,4 hPa 0,0 mm 4,1 km/h (1 Bft) W-NW 292 5,6 C 3,1 km/h (1 Bft)
06.09.2015 05:25 7,8 C 7,6 C 86 % 1012,4 hPa 0,0 mm 3,9 km/h (1 Bft) W-NW 292 5,6 C 3,6 km/h (1 Bft)
06.09.2015 05:30 7,8 C 7,6 C 86 % 1012,4 hPa 0,0 mm 3,9 km/h (1 Bft) S-SW 202 5,6 C 10,9 km/h (2 Bft)
06.09.2015 05:35 7,8 C 7,6 C 86 % 1012,4 hPa 0,0 mm 3,4 km/h (1 Bft) W-NW 292 5,6 C 8,5 km/h (2 Bft)
06.09.2015 05:40 7,8 C 7,6 C 86 % 1012,4 hPa 0,0 mm 4,4 km/h (1 Bft) W-NW 292 5,6 C 8,0 km/h (2 Bft)
06.09.2015 05:45 7,9 C 7,6 C 86 % 1012,4 hPa 0,0 mm 5,4 km/h (1 Bft) SW 225 5,7 C 9,3 km/h (2 Bft)
06.09.2015 05:50 7,8 C 7,5 C 86 % 1012,4 hPa 0,0 mm 3,9 km/h (1 Bft) NW 315 5,6 C 4,7 km/h (1 Bft)
06.09.2015 05:55 7,8 C 7,5 C 86 % 1012,4 hPa 0,0 mm 3,1 km/h (1 Bft) S 180 5,6 C 0,0 km/h (0 Bft)
06.09.2015 06:00 7,8 C 7,5 C 85 % 1012,4 hPa 0,0 mm 2,6 km/h (1 Bft) NW 315 5,4 C 4,9 km/h (1 Bft)
06.09.2015 06:05 7,8 C 7,5 C 85 % 1012,4 hPa 0,0 mm 3,1 km/h (1 Bft) W 270 5,4 C 3,4 km/h (1 Bft)
06.09.2015 06:10 7,8 C 7,5 C 85 % 1012,4 hPa 0,0 mm 3,4 km/h (1 Bft) W-SW 247 5,4 C 0,0 km/h (0 Bft)
06.09.2015 06:15 7,8 C 7,5 C 85 % 1012,6 hPa 0,0 mm 2,3 km/h (1 Bft) SW 225 5,4 C 4,7 km/h (1 Bft)
06.09.2015 06:20 7,9 C 7,6 C 85 % 1012,6 hPa 0,0 mm 6,0 km/h (2 Bft) W 270 5,5 C 27,2 km/h (4 Bft)
06.09.2015 06:25 7,9 C 7,4 C 85 % 1012,6 hPa 0,0 mm 7,3 km/h (2 Bft) W-SW 247 5,5 C 8,3 km/h (2 Bft)
06.09.2015 06:30 7,8 C 7,5 C 85 % 1012,6 hPa 0,0 mm 5,7 km/h (1 Bft) NW 315 5,4 C 2,6 km/h (1 Bft)
06.09.2015 06:35 7,8 C 7,5 C 85 % 1012,8 hPa 0,0 mm 4,4 km/h (1 Bft) SO 135 5,4 C 3,4 km/h (1 Bft)
06.09.2015 06:40 7,8 C 7,5 C 85 % 1012,8 hPa 0,0 mm 4,1 km/h (1 Bft) NW 315 5,4 C 7,8 km/h (2 Bft)
06.09.2015 06:45 7,9 C 7,6 C 85 % 1012,8 hPa 0,0 mm 5,2 km/h (1 Bft) SW 225 5,5 C 8,0 km/h (2 Bft)
06.09.2015 06:50 7,9 C 7,6 C 85 % 1012,8 hPa 0,0 mm 4,7 km/h (1 Bft) W 270 5,5 C 0,0 km/h (0 Bft)
06.09.2015 06:55 7,9 C 7,6 C 85 % 1012,9 hPa 0,0 mm 4,1 km/h (1 Bft) W-SW 247 5,5 C 9,8 km/h (2 Bft)
06.09.2015 06:58 7,9 C 7,5 C 85 % 1012,9 hPa 0,0 mm 6,2 km/h (2 Bft) SW 225 5,5 C 10,1 km/h (2 Bft)
06.09.2015 07:00 7,9 C 7,5 C 85 % 1012,9 hPa 0,0 mm 6,2 km/h (2 Bft) SW 225 5,5 C 10,1 km/h (2 Bft)
06.09.2015 07:05 7,9 C 7,5 C 84 % 1012,9 hPa 0,0 mm 6,7 km/h (2 Bft) NW 315 5,4 C 5,7 km/h (1 Bft)
06.09.2015 07:10 7,9 C 7,6 C 84 % 1012,9 hPa 0,0 mm 5,2 km/h (1 Bft) W-SW 247 5,4 C 4,9 km/h (1 Bft)
06.09.2015 07:15 7,9 C 7,6 C 84 % 1013,1 hPa 0,0 mm 4,1 km/h (1 Bft) W-SW 247 5,4 C 9,3 km/h (2 Bft)
06.09.2015 07:20 7,9 C 7,6 C 84 % 1013,1 hPa 0,0 mm 3,1 km/h (1 Bft) W 270 5,4 C 0,0 km/h (0 Bft)
06.09.2015 07:25 7,9 C 7,7 C 84 % 1013,1 hPa 0,0 mm 3,1 km/h (1 Bft) W-NW 292 5,4 C 5,4 km/h (1 Bft)
06.09.2015 07:30 8,0 C 7,8 C 84 % 1013,1 hPa 0,0 mm 3,4 km/h (1 Bft) SW 225 5,5 C 6,0 km/h (2 Bft)
06.09.2015 07:35 8,0 C 7,8 C 84 % 1013,2 hPa 0,0 mm 3,1 km/h (1 Bft) W-SW 247 5,5 C 0,0 km/h (0 Bft)
06.09.2015 07:40 7,9 C 7,8 C 84 % 1013,2 hPa 0,0 mm 2,3 km/h (1 Bft) SW 225 5,4 C 4,4 km/h (1 Bft)
06.09.2015 07:45 7,9 C 7,7 C 84 % 1013,2 hPa 0,0 mm 3,4 km/h (1 Bft) W 270 5,4 C 0,0 km/h (0 Bft)
06.09.2015 07:50 7,8 C 7,6 C 84 % 1013,2 hPa 0,0 mm 2,8 km/h (1 Bft) NW 315 5,3 C 0,0 km/h (0 Bft)
06.09.2015 07:55 7,8 C 7,6 C 84 % 1013,5 hPa 0,0 mm 0,8 km/h (0 Bft) NW 315 5,3 C 0,0 km/h (0 Bft)
06.09.2015 08:00 7,7 C 7,5 C 85 % 1013,5 hPa 0,7 mm 1,6 km/h (1 Bft) W 270 5,3 C 7,3 km/h (2 Bft)
06.09.2015 08:05 7,7 C 7,5 C 85 % 1013,5 hPa 0,0 mm 2,8 km/h (1 Bft) SW 225 5,3 C 7,0 km/h (2 Bft)
06.09.2015 08:10 7,7 C 7,5 C 85 % 1013,5 hPa 0,7 mm 5,2 km/h (1 Bft) S-SO 157 5,3 C 13,7 km/h (3 Bft)
06.09.2015 08:15 7,8 C 7,5 C 86 % 1013,6 hPa 0,0 mm 6,7 km/h (2 Bft) S-SW 202 5,6 C 14,2 km/h (3 Bft)
06.09.2015 08:20 8,0 C 7,9 C 83 % 1013,6 hPa 0,0 mm 5,7 km/h (1 Bft) SW 225 5,3 C 5,2 km/h (1 Bft)
06.09.2015 08:25 8,0 C 7,9 C 83 % 1013,6 hPa 0,0 mm 4,9 km/h (1 Bft) SO 135 5,3 C 6,0 km/h (2 Bft)
06.09.2015 08:30 8,0 C 7,8 C 86 % 1013,6 hPa 0,0 mm 3,6 km/h (1 Bft) W-SW 247 5,8 C 0,0 km/h (0 Bft)
06.09.2015 08:35 8,0 C 7,8 C 86 % 1013,6 hPa 0,0 mm 2,6 km/h (1 Bft) W-SW 247 5,8 C 2,6 km/h (1 Bft)
06.09.2015 08:40 8,0 C 7,8 C 86 % 1013,6 hPa 0,0 mm 2,8 km/h (1 Bft) SW 225 5,8 C 5,7 km/h (1 Bft)
06.09.2015 08:45 8,0 C 7,8 C 86 % 1013,6 hPa 0,0 mm 3,4 km/h (1 Bft) W-SW 247 5,8 C 4,1 km/h (1 Bft)
06.09.2015 08:50 8,0 C 7,8 C 86 % 1013,6 hPa 0,0 mm 2,6 km/h (1 Bft) S-SW 202 5,8 C 0,0 km/h (0 Bft)
06.09.2015 08:55 8,0 C 7,8 C 86 % 1013,8 hPa 0,0 mm 2,6 km/h (1 Bft) W-SW 247 5,8 C 4,1 km/h (1 Bft)
06.09.2015 09:00 8,0 C 7,8 C 86 % 1013,8 hPa 0,0 mm 2,6 km/h (1 Bft) SO 135 5,8 C 5,2 km/h (1 Bft)
06.09.2015 09:05 8,0 C 7,8 C 86 % 1013,8 hPa 0,0 mm 2,1 km/h (1 Bft) W 270 5,8 C 0,0 km/h (0 Bft)
06.09.2015 09:10 7,9 C 7,7 C 87 % 1013,8 hPa 0,0 mm 3,9 km/h (1 Bft) NW 315 5,9 C 14,0 km/h (3 Bft)
06.09.2015 09:15 7,5 C 7,2 C 86 % 1014,4 hPa 0,0 mm 7,3 km/h (2 Bft) SO 135 5,3 C 15,5 km/h (3 Bft)
06.09.2015 09:20 7,0 C 6,6 C 86 % 1014,4 hPa 1,4 mm 8,5 km/h (2 Bft) W-NW 292 4,8 C 9,6 km/h (2 Bft)
06.09.2015 09:25 6,9 C 6,6 C 86 % 1014,4 hPa 0,7 mm 7,0 km/h (2 Bft) W-NW 292 4,7 C 10,4 km/h (2 Bft)
06.09.2015 09:30 6,6 C 6,2 C 86 % 1014,4 hPa 0,0 mm 8,5 km/h (2 Bft) NW 315 4,4 C 4,1 km/h (1 Bft)
06.09.2015 09:35 6,6 C 6,2 C 86 % 1014,7 hPa 0,7 mm 7,5 km/h (2 Bft) NW 315 4,4 C 13,5 km/h (3 Bft)
06.09.2015 09:40 6,5 C 6,4 C 86 % 1014,7 hPa 0,0 mm 4,9 km/h (1 Bft) NW 315 4,3 C 11,7 km/h (2 Bft)
06.09.2015 09:45 6,5 C 6,3 C 87 % 1014,7 hPa 0,0 mm 5,4 km/h (1 Bft) NW 315 4,5 C 4,4 km/h (1 Bft)
06.09.2015 09:50 6,4 C 6,2 C 87 % 1014,7 hPa 0,0 mm 5,4 km/h (1 Bft) NW 315 4,4 C 4,9 km/h (1 Bft)
06.09.2015 09:55 6,4 C 6,3 C 87 % 1014,9 hPa 0,0 mm 4,9 km/h (1 Bft) W 270 4,4 C 2,8 km/h (1 Bft)
06.09.2015 10:00 6,3 C 6,2 C 87 % 1014,9 hPa 0,7 mm 4,1 km/h (1 Bft) W-SW 247 4,3 C 9,1 km/h (2 Bft)
06.09.2015 10:05 6,2 C 6,1 C 87 % 1014,9 hPa 0,0 mm 4,1 km/h (1 Bft) S 180 4,2 C 7,3 km/h (2 Bft)
06.09.2015 10:10 6,2 C 6,1 C 87 % 1014,9 hPa 0,7 mm 3,1 km/h (1 Bft) S 180 4,2 C 0,0 km/h (0 Bft)
06.09.2015 10:15 6,1 C 6,1 C 84 % 1015,2 hPa 0,0 mm 2,1 km/h (1 Bft) W-SW 247 3,6 C 5,2 km/h (1 Bft)
06.09.2015 10:20 6,1 C 6,2 C 84 % 1015,2 hPa 0,0 mm 2,1 km/h (1 Bft) W-SW 247 3,6 C 0,0 km/h (0 Bft)
06.09.2015 10:25 6,2 C 6,2 C 84 % 1015,2 hPa 0,0 mm 1,6 km/h (1 Bft) W-SW 247 3,7 C 5,2 km/h (1 Bft)
06.09.2015 10:30 6,2 C 6,2 C 85 % 1015,2 hPa 0,0 mm 0,8 km/h (0 Bft) W-NW 292 3,9 C 3,6 km/h (1 Bft)
06.09.2015 10:35 6,2 C 6,3 C 85 % 1015,6 hPa 0,0 mm 1,3 km/h (1 Bft) W-SW 247 3,9 C 0,0 km/h (0 Bft)
06.09.2015 10:40 6,2 C 6,3 C 85 % 1015,6 hPa 0,7 mm 1,8 km/h (1 Bft) W 270 3,9 C 2,8 km/h (1 Bft)
06.09.2015 10:45 6,2 C 6,3 C 85 % 1015,6 hPa 0,0 mm 1,8 km/h (1 Bft) W-SW 247 3,9 C 5,2 km/h (1 Bft)
06.09.2015 10:50 6,2 C 6,3 C 85 % 1015,6 hPa 0,0 mm 2,6 km/h (1 Bft) W-SW 247 3,9 C 4,4 km/h (1 Bft)
06.09.2015 10:55 6,2 C 6,3 C 85 % 1015,6 hPa 0,0 mm 3,1 km/h (1 Bft) SW 225 3,9 C 5,7 km/h (1 Bft)
06.09.2015 11:00 6,2 C 6,3 C 85 % 1015,6 hPa 0,0 mm 5,2 km/h (1 Bft) SW 225 3,9 C 12,2 km/h (2 Bft)
06.09.2015 11:05 6,3 C 6,1 C 85 % 1015,6 hPa 0,0 mm 6,5 km/h (2 Bft) S 180 4,0 C 6,7 km/h (2 Bft)
06.09.2015 11:10 6,3 C 6,3 C 85 % 1015,6 hPa 0,0 mm 4,7 km/h (1 Bft) W-SW 247 4,0 C 0,0 km/h (0 Bft)
06.09.2015 11:15 6,3 C 6,3 C 85 % 1015,6 hPa 0,0 mm 3,4 km/h (1 Bft) SW 225 4,0 C 7,8 km/h (2 Bft)
06.09.2015 11:20 6,3 C 6,3 C 85 % 1015,6 hPa 0,0 mm 4,7 km/h (1 Bft) S-SW 202 4,0 C 6,7 km/h (2 Bft)
06.09.2015 11:25 6,3 C 6,4 C 85 % 1015,6 hPa 0,0 mm 5,4 km/h (1 Bft) S-SW 202 4,0 C 0,0 km/h (0 Bft)
06.09.2015 11:30 6,5 C 6,5 C 85 % 1015,6 hPa 0,0 mm 2,6 km/h (1 Bft) SW 225 4,2 C 4,4 km/h (1 Bft)
06.09.2015 11:35 6,5 C 6,5 C 85 % 1015,8 hPa 0,0 mm 0,8 km/h (0 Bft) W 270 4,2 C 0,0 km/h (0 Bft)
06.09.2015 11:40 6,5 C 6,5 C 85 % 1015,8 hPa 0,0 mm 2,8 km/h (1 Bft) W-SW 247 4,2 C 6,7 km/h (2 Bft)
06.09.2015 11:45 6,5 C 6,5 C 85 % 1015,8 hPa 0,0 mm 3,1 km/h (1 Bft) SW 225 4,2 C 7,3 km/h (2 Bft)
06.09.2015 11:50 6,5 C 6,5 C 85 % 1015,8 hPa 0,0 mm 4,9 km/h (1 Bft) SW 225 4,2 C 6,5 km/h (2 Bft)
06.09.2015 11:55 6,5 C 6,5 C 85 % 1015,8 hPa 0,0 mm 4,7 km/h (1 Bft) W 270 4,2 C 0,0 km/h (0 Bft)
06.09.2015 12:00 6,5 C 6,5 C 85 % 1015,8 hPa 0,0 mm 2,3 km/h (1 Bft) W 270 4,2 C 8,0 km/h (2 Bft)
06.09.2015 12:05 6,5 C 6,5 C 85 % 1015,8 hPa 0,0 mm 2,6 km/h (1 Bft) S-SW 202 4,2 C 5,4 km/h (1 Bft)
06.09.2015 12:10 6,5 C 6,4 C 85 % 1015,8 hPa 0,0 mm 5,2 km/h (1 Bft) SW 225 4,2 C 4,9 km/h (1 Bft)
06.09.2015 12:15 6,5 C 6,5 C 85 % 1016,0 hPa 0,0 mm 4,4 km/h (1 Bft) S 180 4,2 C 10,4 km/h (2 Bft)
06.09.2015 12:20 6,6 C 6,7 C 85 % 1016,0 hPa 0,0 mm 5,2 km/h (1 Bft) S-SW 202 4,3 C 7,3 km/h (2 Bft)
06.09.2015 12:25 6,7 C 6,9 C 85 % 1016,0 hPa 0,7 mm 4,7 km/h (1 Bft) S 180 4,4 C 0,0 km/h (0 Bft)
06.09.2015 12:30 6,9 C 7,1 C 85 % 1016,0 hPa 0,0 mm 1,8 km/h (1 Bft) S-SW 202 4,6 C 3,6 km/h (1 Bft)
06.09.2015 12:35 7,0 C 7,4 C 85 % 1016,2 hPa 0,0 mm 1,6 km/h (1 Bft) W-SW 247 4,7 C 0,0 km/h (0 Bft)
06.09.2015 12:40 7,2 C 7,8 C 85 % 1016,2 hPa 0,0 mm 3,9 km/h (1 Bft) W 270 4,9 C 8,5 km/h (2 Bft)
06.09.2015 12:45 7,4 C 8,0 C 85 % 1016,2 hPa 0,0 mm 4,1 km/h (1 Bft) S-SW 202 5,0 C 4,7 km/h (1 Bft)
06.09.2015 12:50 7,7 C 8,4 C 85 % 1016,2 hPa 0,0 mm 3,9 km/h (1 Bft) N-NW 337 5,3 C 0,0 km/h (0 Bft)
06.09.2015 12:55 7,8 C 8,5 C 85 % 1016,1 hPa 0,0 mm 3,4 km/h (1 Bft) W 270 5,4 C 5,4 km/h (1 Bft)
06.09.2015 12:59 7,9 C 8,6 C 85 % 1016,1 hPa 0,0 mm 3,9 km/h (1 Bft) NW 315 5,5 C 10,9 km/h (2 Bft)
06.09.2015 13:00 7,9 C 8,6 C 85 % 1016,1 hPa 0,0 mm 3,9 km/h (1 Bft) NW 315 5,5 C 10,9 km/h (2 Bft)
06.09.2015 13:05 8,0 C 8,6 C 85 % 1016,1 hPa 0,0 mm 4,7 km/h (1 Bft) S 180 5,6 C 10,6 km/h (2 Bft)
06.09.2015 13:10 8,0 C 8,5 C 85 % 1016,1 hPa 0,0 mm 4,4 km/h (1 Bft) W-SW 247 5,6 C 4,4 km/h (1 Bft)
06.09.2015 13:15 8,1 C 8,5 C 85 % 1016,4 hPa 0,7 mm 3,9 km/h (1 Bft) S-SW 202 5,7 C 3,6 km/h (1 Bft)
06.09.2015 13:20 7,9 C 8,4 C 85 % 1016,4 hPa 0,0 mm 3,4 km/h (1 Bft) W 270 5,5 C 3,9 km/h (1 Bft)
06.09.2015 13:25 7,9 C 8,5 C 85 % 1016,4 hPa 0,0 mm 4,4 km/h (1 Bft) W-SW 247 5,5 C 3,1 km/h (1 Bft)
06.09.2015 13:30 8,5 C 9,4 C 85 % 1016,4 hPa 0,0 mm 4,1 km/h (1 Bft) W-SW 247 6,1 C 4,1 km/h (1 Bft)
06.09.2015 13:35 8,7 C 9,6 C 85 % 1016,4 hPa 0,0 mm 3,6 km/h (1 Bft) W-SW 247 6,3 C 6,2 km/h (2 Bft)
06.09.2015 13:40 8,5 C 9,2 C 84 % 1016,4 hPa 0,0 mm 3,9 km/h (1 Bft) W-SW 247 6,0 C 11,1 km/h (2 Bft)
06.09.2015 13:45 8,4 C 8,9 C 84 % 1016,4 hPa 0,0 mm 3,1 km/h (1 Bft) O-SO 112 5,9 C 0,0 km/h (0 Bft)
06.09.2015 13:50 8,3 C 8,8 C 84 % 1016,4 hPa 0,0 mm 1,8 km/h (1 Bft) W 270 5,8 C 2,6 km/h (1 Bft)
06.09.2015 13:55 8,2 C 8,7 C 84 % 1016,6 hPa 0,0 mm 0,8 km/h (0 Bft) SW 225 5,7 C 4,4 km/h (1 Bft)
06.09.2015 14:00 8,0 C 8,3 C 84 % 1016,6 hPa 0,0 mm 3,9 km/h (1 Bft) N-NO 22 5,5 C 9,1 km/h (2 Bft)
06.09.2015 14:05 7,9 C 8,2 C 84 % 1016,6 hPa 0,0 mm 5,2 km/h (1 Bft) W 270 5,4 C 8,3 km/h (2 Bft)
06.09.2015 14:10 7,9 C 8,1 C 84 % 1016,6 hPa 0,0 mm 4,4 km/h (1 Bft) W-SW 247 5,4 C 7,3 km/h (2 Bft)
06.09.2015 14:15 7,8 C 8,0 C 83 % 1016,5 hPa 0,0 mm 4,7 km/h (1 Bft) S-SW 202 5,1 C 8,3 km/h (2 Bft)
06.09.2015 14:20 7,7 C 7,8 C 83 % 1016,5 hPa 0,0 mm 6,0 km/h (2 Bft) W-NW 292 5,0 C 0,0 km/h (0 Bft)
06.09.2015 14:25 7,7 C 7,8 C 83 % 1016,5 hPa 0,0 mm 6,0 km/h (2 Bft) W-NW 292 5,0 C 4,9 km/h (1 Bft)
06.09.2015 14:30 7,8 C 8,0 C 83 % 1016,5 hPa 0,0 mm 4,4 km/h (1 Bft) SW 225 5,1 C 8,0 km/h (2 Bft)
06.09.2015 14:35 7,9 C 8,2 C 83 % 1016,6 hPa 0,0 mm 4,4 km/h (1 Bft) NO 45 5,2 C 6,0 km/h (2 Bft)
06.09.2015 14:40 8,1 C 8,4 C 83 % 1016,6 hPa 0,0 mm 3,1 km/h (1 Bft) W-SW 247 5,4 C 4,4 km/h (1 Bft)
06.09.2015 14:45 8,1 C 8,3 C 83 % 1016,6 hPa 0,0 mm 2,8 km/h (1 Bft) W-SW 247 5,4 C 8,3 km/h (2 Bft)
06.09.2015 14:50 8,0 C 8,0 C 83 % 1016,6 hPa 0,0 mm 2,8 km/h (1 Bft) S-SW 202 5,3 C 0,0 km/h (0 Bft)
06.09.2015 14:55 7,9 C 8,0 C 83 % 1016,6 hPa 0,0 mm 1,6 km/h (1 Bft) W 270 5,2 C 0,0 km/h (0 Bft)
06.09.2015 15:00 7,9 C 8,1 C 83 % 1016,6 hPa 0,0 mm 2,3 km/h (1 Bft) W 270 5,2 C 6,5 km/h (2 Bft)
06.09.2015 15:05 8,0 C 8,3 C 83 % 1016,6 hPa 0,0 mm 3,1 km/h (1 Bft) SW 225 5,3 C 8,0 km/h (2 Bft)
06.09.2015 15:10 8,1 C 8,2 C 83 % 1016,6 hPa 0,0 mm 2,6 km/h (1 Bft) NW 315 5,4 C 3,4 km/h (1 Bft)
06.09.2015 15:15 8,2 C 8,4 C 83 % 1016,6 hPa 0,0 mm 1,6 km/h (1 Bft) SW 225 5,5 C 0,0 km/h (0 Bft)
06.09.2015 15:20 8,4 C 8,9 C 83 % 1016,6 hPa 0,0 mm 1,6 km/h (1 Bft) SW 225 5,7 C 5,7 km/h (1 Bft)
06.09.2015 15:25 8,5 C 8,9 C 83 % 1016,6 hPa 0,0 mm 2,8 km/h (1 Bft) W-SW 247 5,8 C 8,5 km/h (2 Bft)
06.09.2015 15:30 8,6 C 9,1 C 83 % 1016,6 hPa 0,0 mm 3,9 km/h (1 Bft) W 270 5,9 C 3,1 km/h (1 Bft)
06.09.2015 15:35 8,9 C 9,5 C 83 % 1016,6 hPa 0,0 mm 3,9 km/h (1 Bft) S 180 6,2 C 4,1 km/h (1 Bft)
06.09.2015 15:40 9,1 C 9,4 C 83 % 1016,6 hPa 0,0 mm 2,3 km/h (1 Bft) W-SW 247 6,4 C 0,0 km/h (0 Bft)
06.09.2015 15:45 9,0 C 9,2 C 83 % 1016,6 hPa 0,0 mm 2,3 km/h (1 Bft) S 180 6,3 C 17,3 km/h (3 Bft)
06.09.2015 15:50 8,9 C 9,0 C 83 % 1016,6 hPa 0,0 mm 3,4 km/h (1 Bft) W-SW 247 6,2 C 6,5 km/h (2 Bft)
06.09.2015 15:55 8,8 C 8,9 C 83 % 1016,9 hPa 0,0 mm 3,4 km/h (1 Bft) W 270 6,1 C 3,9 km/h (1 Bft)
06.09.2015 16:00 8,7 C 8,7 C 83 % 1016,9 hPa 0,0 mm 4,1 km/h (1 Bft) NW 315 6,0 C 4,9 km/h (1 Bft)
06.09.2015 16:05 8,6 C 8,7 C 83 % 1016,9 hPa 0,0 mm 3,9 km/h (1 Bft) SW 225 5,9 C 2,6 km/h (1 Bft)
06.09.2015 16:10 8,7 C 8,8 C 83 % 1016,9 hPa 0,0 mm 3,4 km/h (1 Bft) W-SW 247 6,0 C 4,9 km/h (1 Bft)
06.09.2015 16:15 8,8 C 9,0 C 83 % 1016,9 hPa 0,7 mm 3,1 km/h (1 Bft) NW 315 6,1 C 2,8 km/h (1 Bft)
06.09.2015 16:20 8,8 C 9,0 C 83 % 1016,9 hPa 0,0 mm 2,8 km/h (1 Bft) W-SW 247 6,1 C 10,9 km/h (2 Bft)
06.09.2015 16:25 8,6 C 8,7 C 83 % 1016,9 hPa 0,0 mm 4,9 km/h (1 Bft) SW 225 5,9 C 13,5 km/h (3 Bft)
06.09.2015 16:30 8,6 C 8,6 C 83 % 1016,9 hPa 0,0 mm 6,5 km/h (2 Bft) S 180 5,9 C 7,3 km/h (2 Bft)
06.09.2015 16:35 8,5 C 8,5 C 83 % 1016,7 hPa 0,0 mm 6,5 km/h (2 Bft) W 270 5,8 C 14,2 km/h (3 Bft)
06.09.2015 16:40 8,4 C 8,3 C 83 % 1016,7 hPa 0,0 mm 7,5 km/h (2 Bft) NW 315 5,7 C 3,1 km/h (1 Bft)
06.09.2015 16:45 8,6 C 8,6 C 83 % 1016,7 hPa 0,0 mm 6,0 km/h (2 Bft) W 270 5,9 C 2,6 km/h (1 Bft)
06.09.2015 16:50 8,8 C 9,1 C 83 % 1016,7 hPa 0,0 mm 2,8 km/h (1 Bft) S-SW 202 6,1 C 10,4 km/h (2 Bft)
06.09.2015 16:55 8,8 C 9,1 C 83 % 1016,7 hPa 0,0 mm 3,1 km/h (1 Bft) SW 225 6,1 C 6,5 km/h (2 Bft)
06.09.2015 17:00 8,9 C 9,1 C 83 % 1016,7 hPa 0,0 mm 4,1 km/h (1 Bft) N-NW 337 6,2 C 2,6 km/h (1 Bft)
06.09.2015 17:05 8,9 C 9,2 C 83 % 1016,7 hPa 0,0 mm 3,4 km/h (1 Bft) W 270 6,2 C 0,0 km/h (0 Bft)
06.09.2015 17:10 9,1 C 9,3 C 83 % 1016,7 hPa 0,0 mm 2,8 km/h (1 Bft) NW 315 6,4 C 0,0 km/h (0 Bft)
06.09.2015 17:15 9,2 C 9,5 C 83 % 1016,8 hPa 0,0 mm 2,3 km/h (1 Bft) W-SW 247 6,5 C 3,9 km/h (1 Bft)
06.09.2015 17:20 9,4 C 9,7 C 83 % 1016,8 hPa 0,0 mm 1,6 km/h (1 Bft) SW 225 6,7 C 4,9 km/h (1 Bft)
06.09.2015 17:25 9,4 C 9,8 C 82 % 1016,8 hPa 0,0 mm 2,1 km/h (1 Bft) W-SW 247 6,5 C 6,2 km/h (2 Bft)
06.09.2015 17:30 9,5 C 9,9 C 82 % 1016,8 hPa 0,0 mm 2,6 km/h (1 Bft) SW 225 6,6 C 3,6 km/h (1 Bft)
06.09.2015 17:35 9,6 C 10,3 C 82 % 1016,8 hPa 0,0 mm 2,3 km/h (1 Bft) SW 225 6,7 C 6,7 km/h (2 Bft)
06.09.2015 17:40 9,7 C 10,6 C 82 % 1016,8 hPa 0,0 mm 2,3 km/h (1 Bft) O-NO 67 6,8 C 8,3 km/h (2 Bft)
06.09.2015 17:45 9,6 C 10,7 C 81 % 1016,8 hPa 0,0 mm 4,1 km/h (1 Bft) SW 225 6,5 C 10,1 km/h (2 Bft)
06.09.2015 17:50 9,6 C 10,6 C 81 % 1016,8 hPa 0,0 mm 4,9 km/h (1 Bft) W 270 6,5 C 7,3 km/h (2 Bft)
06.09.2015 17:55 9,6 C 10,6 C 80 % 1016,8 hPa 0,0 mm 5,2 km/h (1 Bft) W-SW 247 6,3 C 11,7 km/h (2 Bft)
06.09.2015 18:00 9,7 C 10,6 C 80 % 1016,8 hPa 0,0 mm 5,4 km/h (1 Bft) S 180 6,4 C 4,1 km/h (1 Bft)
06.09.2015 18:05 9,5 C 10,4 C 80 % 1016,8 hPa 0,0 mm 4,7 km/h (1 Bft) W-SW 247 6,2 C 6,2 km/h (2 Bft)
06.09.2015 18:10 9,3 C 9,9 C 79 % 1016,8 hPa 0,0 mm 3,9 km/h (1 Bft) W-NW 292 5,8 C 0,0 km/h (0 Bft)
06.09.2015 18:15 9,3 C 9,7 C 79 % 1016,9 hPa 0,0 mm 3,6 km/h (1 Bft) S 180 5,8 C 3,9 km/h (1 Bft)
06.09.2015 18:20 9,5 C 10,0 C 79 % 1016,9 hPa 0,0 mm 2,3 km/h (1 Bft) W 270 6,0 C 4,9 km/h (1 Bft)
06.09.2015 18:25 9,4 C 10,1 C 79 % 1016,9 hPa 0,0 mm 3,4 km/h (1 Bft) W-SW 247 5,9 C 9,6 km/h (2 Bft)
06.09.2015 18:30 9,2 C 9,8 C 79 % 1016,9 hPa 0,0 mm 4,9 km/h (1 Bft) S 180 5,8 C 8,3 km/h (2 Bft)
06.09.2015 18:35 9,2 C 9,7 C 79 % 1017,1 hPa 0,0 mm 5,2 km/h (1 Bft) W-SW 247 5,8 C 6,2 km/h (2 Bft)
06.09.2015 18:40 9,1 C 9,7 C 79 % 1017,1 hPa 0,0 mm 3,1 km/h (1 Bft) W 270 5,7 C 0,0 km/h (0 Bft)
06.09.2015 18:45 9,0 C 9,5 C 79 % 1017,1 hPa 0,0 mm 2,3 km/h (1 Bft) S-SW 202 5,6 C 6,0 km/h (2 Bft)
06.09.2015 18:50 8,9 C 9,3 C 79 % 1017,1 hPa 0,0 mm 3,4 km/h (1 Bft) SW 225 5,5 C 5,4 km/h (1 Bft)
06.09.2015 18:55 8,8 C 9,2 C 79 % 1017,0 hPa 0,0 mm 4,4 km/h (1 Bft) W-SW 247 5,4 C 4,1 km/h (1 Bft)
06.09.2015 19:00 8,5 C 8,8 C 79 % 1017,0 hPa 0,0 mm 3,9 km/h (1 Bft) S-SW 202 5,1 C 7,0 km/h (2 Bft)
06.09.2015 19:05 8,6 C 8,7 C 80 % 1017,0 hPa 0,0 mm 3,9 km/h (1 Bft) SW 225 5,3 C 4,9 km/h (1 Bft)
06.09.2015 19:10 8,6 C 8,7 C 80 % 1017,0 hPa 0,0 mm 4,1 km/h (1 Bft) W-SW 247 5,3 C 0,0 km/h (0 Bft)
06.09.2015 19:15 8,6 C 8,7 C 80 % 1017,2 hPa 0,0 mm 2,6 km/h (1 Bft) S 180 5,3 C 3,4 km/h (1 Bft)
06.09.2015 19:20 8,5 C 8,6 C 80 % 1017,2 hPa 0,0 mm 2,6 km/h (1 Bft) S-SO 157 5,3 C 4,1 km/h (1 Bft)
06.09.2015 19:25 8,3 C 8,4 C 80 % 1017,2 hPa 0,0 mm 2,8 km/h (1 Bft) W-SW 247 5,1 C 3,9 km/h (1 Bft)
06.09.2015 19:30 8,1 C 8,2 C 80 % 1017,2 hPa 0,0 mm 2,6 km/h (1 Bft) SW 225 4,9 C 2,8 km/h (1 Bft)
06.09.2015 19:35 8,1 C 8,1 C 81 % 1017,2 hPa 0,0 mm 3,4 km/h (1 Bft) W-SW 247 5,0 C 6,5 km/h (2 Bft)
06.09.2015 19:40 8,1 C 8,1 C 81 % 1017,2 hPa 0,0 mm 4,1 km/h (1 Bft) W-SW 247 5,0 C 7,0 km/h (2 Bft)
06.09.2015 19:45 7,8 C 7,9 C 81 % 1017,2 hPa 0,0 mm 4,4 km/h (1 Bft) S 180 4,7 C 2,6 km/h (1 Bft)
06.09.2015 19:50 7,4 C 7,4 C 82 % 1017,2 hPa 0,0 mm 2,6 km/h (1 Bft) SW 225 4,5 C 3,1 km/h (1 Bft)
06.09.2015 19:55 7,2 C 7,2 C 82 % 1017,1 hPa 0,0 mm 1,8 km/h (1 Bft) W-SW 247 4,3 C 7,8 km/h (2 Bft)
06.09.2015 20:00 7,2 C 7,1 C 82 % 1017,1 hPa 0,0 mm 3,6 km/h (1 Bft) W-SW 247 4,3 C 7,8 km/h (2 Bft)
06.09.2015 20:05 7,0 C 6,9 C 83 % 1017,1 hPa 0,0 mm 4,1 km/h (1 Bft) S 180 4,3 C 10,6 km/h (2 Bft)
06.09.2015 20:10 7,2 C 7,1 C 83 % 1017,1 hPa 0,0 mm 5,2 km/h (1 Bft) S-SO 157 4,5 C 7,8 km/h (2 Bft)
06.09.2015 20:15 7,2 C 7,1 C 83 % 1017,2 hPa 0,0 mm 6,0 km/h (2 Bft) SW 225 4,5 C 11,7 km/h (2 Bft)
06.09.2015 20:20 7,2 C 7,0 C 84 % 1017,2 hPa 0,0 mm 6,5 km/h (2 Bft) SW 225 4,7 C 12,7 km/h (3 Bft)
06.09.2015 20:25 7,3 C 7,1 C 84 % 1017,2 hPa 0,0 mm 7,0 km/h (2 Bft) SW 225 4,8 C 4,1 km/h (1 Bft)
06.09.2015 20:30 7,0 C 6,9 C 84 % 1017,2 hPa 0,0 mm 5,7 km/h (1 Bft) W-SW 247 4,5 C 7,0 km/h (2 Bft)
06.09.2015 20:35 6,9 C 6,9 C 84 % 1017,4 hPa 0,0 mm 4,7 km/h (1 Bft) W-SW 247 4,4 C 9,3 km/h (2 Bft)
06.09.2015 20:40 7,0 C 6,9 C 84 % 1017,4 hPa 0,0 mm 4,1 km/h (1 Bft) W-SW 247 4,5 C 0,0 km/h (0 Bft)
06.09.2015 20:45 7,0 C 6,9 C 84 % 1017,4 hPa 0,0 mm 3,9 km/h (1 Bft) W-SW 247 4,5 C 2,6 km/h (1 Bft)
06.09.2015 20:50 6,9 C 6,9 C 85 % 1017,4 hPa 0,0 mm 2,1 km/h (1 Bft) S 180 4,6 C 0,0 km/h (0 Bft)
06.09.2015 20:55 6,9 C 6,9 C 85 % 1017,7 hPa 0,0 mm 1,6 km/h (1 Bft) W-SW 247 4,6 C 2,6 km/h (1 Bft)
06.09.2015 21:00 6,9 C 6,9 C 85 % 1017,7 hPa 0,0 mm 0,8 km/h (0 Bft) S-SW 202 4,6 C 5,7 km/h (1 Bft)
06.09.2015 21:05 7,0 C 6,9 C 85 % 1017,7 hPa 0,0 mm 0,5 km/h (0 Bft) W 270 4,7 C 0,0 km/h (0 Bft)
06.09.2015 21:10 7,0 C 6,9 C 86 % 1017,7 hPa 0,0 mm 0,5 km/h (0 Bft) SO 135 4,8 C 0,0 km/h (0 Bft)
06.09.2015 21:15 6,9 C 6,8 C 86 % 1017,7 hPa 0,0 mm 0,3 km/h (0 Bft) S-SO 157 4,7 C 0,0 km/h (0 Bft)
06.09.2015 21:20 6,9 C 6,8 C 87 % 1017,7 hPa 0,0 mm 1,3 km/h (1 Bft) SO 135 4,9 C 0,0 km/h (0 Bft)
06.09.2015 21:25 6,7 C 6,6 C 87 % 1017,7 hPa 0,0 mm 1,6 km/h (1 Bft) S 180 4,7 C 3,4 km/h (1 Bft)
06.09.2015 21:30 6,7 C 6,6 C 88 % 1017,7 hPa 0,0 mm 1,6 km/h (1 Bft) W-SW 247 4,9 C 9,3 km/h (2 Bft)
06.09.2015 21:35 6,7 C 6,6 C 88 % 1017,9 hPa 0,0 mm 2,3 km/h (1 Bft) W-SW 247 4,9 C 3,9 km/h (1 Bft)
06.09.2015 21:40 6,8 C 6,7 C 88 % 1017,9 hPa 0,0 mm 2,8 km/h (1 Bft) SO 135 5,0 C 0,0 km/h (0 Bft)
06.09.2015 21:45 6,8 C 6,7 C 88 % 1017,9 hPa 0,0 mm 2,3 km/h (1 Bft) SW 225 5,0 C 2,8 km/h (1 Bft)
06.09.2015 21:50 6,9 C 6,8 C 88 % 1017,9 hPa 0,0 mm 2,1 km/h (1 Bft) S 180 5,1 C 0,0 km/h (0 Bft)
06.09.2015 21:55 6,9 C 6,8 C 88 % 1017,9 hPa 0,0 mm 1,6 km/h (1 Bft) S 180 5,1 C 2,8 km/h (1 Bft)
06.09.2015 22:00 6,8 C 6,7 C 88 % 1017,9 hPa 0,0 mm 1,8 km/h (1 Bft) S-SO 157 5,0 C 0,0 km/h (0 Bft)
06.09.2015 22:05 6,8 C 6,7 C 88 % 1017,9 hPa 0,0 mm 2,6 km/h (1 Bft) W-SW 247 5,0 C 7,8 km/h (2 Bft)
06.09.2015 22:10 6,7 C 6,6 C 88 % 1017,9 hPa 0,0 mm 1,8 km/h (1 Bft) SO 135 4,9 C 2,8 km/h (1 Bft)
06.09.2015 22:15 6,7 C 6,6 C 88 % 1017,9 hPa 0,0 mm 1,8 km/h (1 Bft) S-SO 157 4,9 C 0,0 km/h (0 Bft)
06.09.2015 22:20 6,7 C 6,6 C 88 % 1017,9 hPa 0,0 mm 0,3 km/h (0 Bft) S-SO 157 4,9 C 0,0 km/h (0 Bft)
06.09.2015 22:25 6,7 C 6,6 C 88 % 1017,9 hPa 0,0 mm 0,0 km/h (0 Bft) S-SO 157 4,9 C 0,0 km/h (0 Bft)
06.09.2015 22:30 6,7 C 6,6 C 89 % 1017,9 hPa 0,0 mm 0,0 km/h (0 Bft) S-SO 157 5,0 C 0,0 km/h (0 Bft)
06.09.2015 22:35 6,7 C 6,6 C 89 % 1017,9 hPa 0,0 mm 0,0 km/h (0 Bft) S-SO 157 5,0 C 0,0 km/h (0 Bft)
06.09.2015 22:40 6,7 C 6,6 C 89 % 1017,9 hPa 0,0 mm 0,3 km/h (0 Bft) S-SO 157 5,0 C 0,0 km/h (0 Bft)
06.09.2015 22:45 6,7 C 6,6 C 89 % 1017,9 hPa 0,0 mm 0,3 km/h (0 Bft) S 180 5,0 C 0,0 km/h (0 Bft)
06.09.2015 22:50 6,8 C 6,7 C 89 % 1017,9 hPa 0,0 mm 0,0 km/h (0 Bft) S-SO 157 5,1 C 0,0 km/h (0 Bft)
06.09.2015 22:55 6,8 C 6,7 C 89 % 1017,9 hPa 0,0 mm 0,3 km/h (0 Bft) SO 135 5,1 C 0,0 km/h (0 Bft)
06.09.2015 23:00 6,8 C 6,7 C 89 % 1017,9 hPa 0,0 mm 0,5 km/h (0 Bft) S 180 5,1 C 0,0 km/h (0 Bft)
06.09.2015 23:05 6,8 C 6,7 C 89 % 1017,9 hPa 0,0 mm 0,8 km/h (0 Bft) S-SW 202 5,1 C 0,0 km/h (0 Bft)
06.09.2015 23:10 6,6 C 6,5 C 89 % 1017,9 hPa 0,0 mm 1,0 km/h (0 Bft) W 270 4,9 C 5,7 km/h (1 Bft)
06.09.2015 23:15 6,6 C 6,5 C 89 % 1017,9 hPa 0,0 mm 1,3 km/h (1 Bft) O-SO 112 4,9 C 0,0 km/h (0 Bft)
06.09.2015 23:20 6,4 C 6,3 C 89 % 1017,9 hPa 0,0 mm 1,0 km/h (0 Bft) SO 135 4,7 C 0,0 km/h (0 Bft)
06.09.2015 23:25 6,4 C 6,3 C 89 % 1017,9 hPa 0,0 mm 0,3 km/h (0 Bft) S-SO 157 4,7 C 0,0 km/h (0 Bft)
06.09.2015 23:30 6,5 C 6,3 C 89 % 1017,9 hPa 0,0 mm 0,3 km/h (0 Bft) S-SW 202 4,8 C 0,0 km/h (0 Bft)
06.09.2015 23:35 6,5 C 6,4 C 89 % 1018,1 hPa 0,0 mm 0,8 km/h (0 Bft) S 180 4,8 C 4,1 km/h (1 Bft)
06.09.2015 23:40 6,7 C 6,5 C 89 % 1018,1 hPa 0,0 mm 4,1 km/h (1 Bft) S-SW 202 5,0 C 7,5 km/h (2 Bft)
06.09.2015 23:45 6,8 C 6,6 C 89 % 1018,1 hPa 0,0 mm 5,7 km/h (1 Bft) SW 225 5,1 C 6,2 km/h (2 Bft)
06.09.2015 23:50 6,8 C 6,7 C 89 % 1018,1 hPa 0,0 mm 5,2 km/h (1 Bft) S-SO 157 5,1 C 0,0 km/h (0 Bft)
06.09.2015 23:55 6,8 C 6,6 C 89 % 1018,1 hPa 0,0 mm 3,6 km/h (1 Bft) S-SO 157 5,1 C 0,0 km/h (0 Bft)
_ Min-Zeit 10:20 11:05 19:00 02:50 - 22:50 - - 10:20 23:55
Minimum _ 6,1 C 6,1 C 79 % 1012,1 hPa - 0,0 km/h (0 Bft) - - 3,6 C 0,0 km/h (0 Bft)
_ Max-Zeit 18:00 17:45 23:55 23:55 09:20 09:30 - - 17:40 06:20
Maximum _ 9,7 C 10,7 C 89 % 1018,1 hPa 1,4 mm 8,5 km/h
NW (2 Bft)
- - 6,8 C 27,2 km/h
W (4 Bft)
Durchschnitt _ 7,8 C 7,8 C 84 % 1015,2 hPa #8,9 mm 3,2 km/h (1 Bft) W-SW - 5,3 C 4,7 km/h (1 Bft)